User: anonymous   Login
Location: Unspecified
(0.0000°N, 0.0000°E)
Time: 22:25:04
(UTC+02:00)
Language:

Iridium 39 - Orbit

View from above orbital plane
View from above orbital plane
View from above satellite
View from above satellite

Ground track
Ground track

The orbit data is extracted from the following two-line orbital elements,

1 25042U 97069D   16206.37846360  .00000152  00000-0  36908-4 0  9994
2 25042  86.3956 159.0600 0017786 329.2505  30.7654 14.46069933979340
Epoch (UTC): 24 July 2016 09:04:59
Eccentricity: 0.0017786
inclination: 86.3956°
perigee height: 726 km
apogee height: 751 km
right ascension of ascending node: 159.0600°
argument of perigee: 329.2505°
revolutions per day: 14.46069933
mean anomaly at epoch: 30.7654°
orbit number at epoch: 97934

The dashed part of the orbit path shows where the satellite is in the earth's shadow,  

DLR